星链-4333 (STARLINK-4333 )

导读

STARLINK-4333是美国SpaceX公司星链星座的V2.0 mini版本卫星,隶属于星链Group 4-16任务,于2022年7月11日由猎鹰9号火箭发射升空,卫星重约297kg,运行在近地轨道,主要为全球提供高速宽带互联网服务,目前仍在轨正常工作。

基本信息
目录编号:
53088
目录名称:
STARLINK-4333
国际标识:
2022-077AX
轨道中心:
EARTH
卫星名称:
星链-4333
卫星全名:
星链-4333 (STARLINK-4333 )
卫星状态:
在轨 (已飞行1437 天)
发射日期:
2022-07-11 UTC
国别 :
美国 (US)
星等 :
--
轨道信息
数据来源 国际轨道数据 AOE轨道数据
星历时间 2026-06-17T09:51:22+0800
9小时前
查看轨道信息
2026-06-15T18:00:00+0800
2天前
查看轨道信息
半长轴 6927.659km 6927.646km
偏心率 0.0001594 0.0000715
轨道倾角 97.350° 97.357°
近地点辐角 87.737° 40.697°
升交点赤经 347.009° 345.421°
平近点角 272.404° 323.717°
近地点 548.417km 549.013km
远地点 550.627km 550.005km
周期 95.640分钟 95.640分钟
每日圈数 15.056467 15.05651
详细信息
固有亮度:
5
最大亮度:
2.5
卫星平台:
Starlink v1.5
覆盖范围:
全球
运营商:
太空探索技术公司
运营商所在国:
美国
制造商(研发单位):
太空探索技术公司
制造商所在国:
美国
使用方式:
暂无
卫星简介
星链(Starlink)计划是由太空探索技术公司(SpaceX)提出的一个巨型低轨卫星互联网星座项目,计划在2019年至2024年间在太空搭建由约1.2万颗卫星组成的“星链”网络,其中1584颗将部署在地球上空550千米处的近地轨道,并从2020年开始工作。该卫星仍在工作。
2D轨道图
3D轨道图
轨道高度分析图
轨道倾角分析图
轨道综合分析图
查看轨道综合分析图